Liberal, KS

3:44 AM CDT on August 19, 2017 (GMT -0500)
Liberal Municipal

Weather History for KLBL - February, 2013

Change the Weather History Date:

Sunday, February 10, 2013

  Actual Average Record
Temperature  
Mean Temperature 34 °F -  
Max Temperature 48 °F 50 °F 89 °F (2017)
Min Temperature 21 °F 21 °F -7 °F (2011)
Degree Days  
Heating Degree Days 30    
Moisture  
Dew Point 16 °F    
Average Humidity 44    
Maximum Humidity 65    
Minimum Humidity 27    
Precipitation  
Precipitation 0.00 in - - ()
Sea Level Pressure  
Sea Level Pressure 29.78 in    
Wind  
Wind Speed 17 mph (NW)    
Max Wind Speed 29 mph    
Max Gust Speed 36 mph    
Visibility 10 miles    
Events      
Averages and records for this station are not official NWS values.
T = Trace of Precipitation, MM = Missing Value Source: NWS Daily Summary

Daily Weather History Graph

Daily Weather History Graph

Search for Another Location

Airport or City:

Trip Planner

Search our weather history database for the weather conditions in past years. The results will help you decide how hot, cold, wet, or windy it might be!

Date:

Astronomy

Feb. 10, 2013 Rise Set
Actual Time 7:37 AM CST 6:18 PM CST
Civil Twilight 7:10 AM CST 6:45 PM CST
Nautical Twilight 6:40 AM CST 7:16 PM CST
Astronomical Twilight 6:09 AM CST 7:46 PM CST
Moon 7:30 AM CST (2/10) 7:09 PM CST (2/10)
Length of Visible Light 11h 34m
Length of Day
10h 41m
New Moon, 0% of the Moon is Illuminated
Feb 10
New Moon
Feb 17
First Quarter
Feb 25
Full
Mar 4
Last Quarter
Mar 11
New

Hourly Weather History & Observations

Time (CST) Temp. Windchill Dew Point Humidity Pressure Visibility Wind Dir Wind Speed Gust Speed Precip Events Conditions
12:15 AM 39.2 °F 30.2 °F 12.2 °F 33% 29.53 in 10.0 mi SW 17.3 mph 23.0 mph N/A   Clear
12:35 AM 37.4 °F 28.5 °F 12.2 °F 36% 29.54 in 10.0 mi SW 15.0 mph - N/A   Clear
12:55 AM 37.4 °F 28.2 °F 12.2 °F 36% 29.53 in 10.0 mi SW 16.1 mph - N/A   Clear
1:15 AM 35.6 °F 25.2 °F 12.2 °F 38% 29.53 in 10.0 mi SW 18.4 mph - N/A   Clear
1:35 AM 37.4 °F 27.5 °F 12.2 °F 36% 29.52 in 10.0 mi SW 18.4 mph - N/A   Clear
1:55 AM 37.4 °F 27.8 °F 10.4 °F 33% 29.53 in 10.0 mi SW 17.3 mph - N/A   Clear
2:15 AM 35.6 °F 26.2 °F 10.4 °F 35% 29.54 in 10.0 mi West 15.0 mph - N/A   Clear
2:35 AM 33.8 °F 23.2 °F 8.6 °F 35% 29.55 in 10.0 mi WSW 17.3 mph - N/A   Clear
2:55 AM 33.8 °F 24.8 °F 10.4 °F 38% 29.55 in 10.0 mi West 12.7 mph - N/A   Clear
3:15 AM 33.8 °F 24.8 °F 10.4 °F 38% 29.56 in 10.0 mi West 12.7 mph - N/A   Clear
3:35 AM 30.2 °F 20.8 °F 10.4 °F 44% 29.57 in 10.0 mi West 11.5 mph - N/A   Clear
3:55 AM 30.2 °F 20.8 °F 12.2 °F 47% 29.57 in 10.0 mi West 11.5 mph - N/A   Clear
4:15 AM 30.2 °F 19.8 °F 17.6 °F 60% 29.57 in 10.0 mi West 13.8 mph - N/A   Scattered Clouds
4:35 AM 30.2 °F 19.3 °F 17.6 °F 60% 29.58 in 10.0 mi West 15.0 mph - N/A   Partly Cloudy
4:55 AM 30.2 °F 18.5 °F 17.6 °F 60% 29.59 in 10.0 mi West 17.3 mph - N/A   Partly Cloudy
5:15 AM 33.8 °F 22.2 °F 21.2 °F 60% 29.59 in 10.0 mi West 20.7 mph 24.2 mph N/A   Partly Cloudy
5:35 AM 35.6 °F 24.5 °F 24.8 °F 65% 29.60 in 10.0 mi WNW 20.7 mph 27.6 mph N/A   Partly Cloudy
5:55 AM 35.6 °F 25.5 °F 23.0 °F 60% 29.61 in 10.0 mi WNW 17.3 mph - N/A   Partly Cloudy
6:15 AM 35.6 °F 25.2 °F 21.2 °F 56% 29.62 in 10.0 mi WNW 18.4 mph - N/A   Partly Cloudy
6:35 AM 33.8 °F 22.8 °F 21.2 °F 60% 29.62 in 10.0 mi WNW 18.4 mph - N/A   Clear
6:55 AM 33.8 °F 22.2 °F 21.2 °F 60% 29.63 in 10.0 mi WNW 20.7 mph - N/A   Clear
7:15 AM 33.8 °F 22.5 °F 21.2 °F 60% 29.64 in 10.0 mi WNW 19.6 mph - N/A   Clear
7:35 AM 33.8 °F 22.5 °F 21.2 °F 60% 29.66 in 10.0 mi WNW 19.6 mph - N/A   Scattered Clouds
7:55 AM 33.8 °F 23.2 °F 21.2 °F 60% 29.67 in 10.0 mi WNW 17.3 mph 23.0 mph N/A   Scattered Clouds
8:15 AM 33.8 °F 23.2 °F 21.2 °F 60% 29.69 in 10.0 mi West 17.3 mph - N/A   Partly Cloudy
8:35 AM 35.6 °F 25.9 °F 21.2 °F 56% 29.71 in 10.0 mi West 16.1 mph - N/A   Clear
8:55 AM 35.6 °F 25.2 °F 21.2 °F 56% 29.72 in 10.0 mi West 18.4 mph - N/A   Clear
9:15 AM 37.4 °F 26.4 °F 23.0 °F 56% 29.73 in 10.0 mi WNW 23.0 mph 28.8 mph N/A   Clear
9:35 AM 39.2 °F 27.8 °F 23.0 °F 52% 29.75 in 10.0 mi WNW 27.6 mph 33.4 mph N/A   Clear
9:55 AM 39.2 °F 27.8 °F 23.0 °F 52% 29.75 in 10.0 mi NW 27.6 mph 35.7 mph N/A   Clear
10:15 AM 39.2 °F 28.0 °F 21.2 °F 49% 29.76 in 10.0 mi NW 26.5 mph 33.4 mph N/A   Clear
10:35 AM 41.0 °F 30.2 °F 21.2 °F 45% 29.77 in 10.0 mi NW 27.6 mph 34.5 mph N/A   Clear
10:55 AM 42.8 °F 33.5 °F 21.2 °F 42% 29.79 in 10.0 mi NW 23.0 mph 31.1 mph N/A   Clear
11:15 AM 42.8 °F 33.1 °F 21.2 °F 42% 29.80 in 10.0 mi NW 25.3 mph 34.5 mph N/A   Clear
11:35 AM 44.6 °F 35.5 °F 19.4 °F 37% 29.80 in 10.0 mi NW 25.3 mph 31.1 mph N/A   Clear
12:15 PM 46.4 °F 37.4 °F 19.4 °F 34% 29.81 in 10.0 mi NW 28.8 mph 35.7 mph N/A   Clear
12:35 PM 46.4 °F 38.1 °F 19.4 °F 34% 29.80 in 10.0 mi NNW 24.2 mph 33.4 mph N/A   Clear
12:55 PM 46.4 °F 37.5 °F 19.4 °F 34% 29.80 in 10.0 mi NNW 27.6 mph 33.4 mph N/A   Clear
1:15 PM 46.4 °F 38.5 °F 19.4 °F 34% 29.80 in 10.0 mi NW 21.9 mph 34.5 mph N/A   Clear
1:35 PM 48.2 °F - 19.4 °F 32% 29.80 in 10.0 mi NNW 26.5 mph 33.4 mph N/A   Clear
1:55 PM 48.2 °F - 19.4 °F 32% 29.81 in 10.0 mi NW 21.9 mph 32.2 mph N/A   Clear
2:15 PM 48.2 °F - 19.4 °F 32% 29.81 in 10.0 mi NNW 25.3 mph 32.2 mph N/A   Clear
2:35 PM 48.2 °F - 19.4 °F 32% 29.82 in 10.0 mi NNW 21.9 mph 31.1 mph N/A   Partly Cloudy
2:55 PM 48.2 °F - 17.6 °F 30% 29.82 in 10.0 mi NW 21.9 mph 28.8 mph N/A   Partly Cloudy
3:15 PM 48.2 °F - 17.6 °F 30% 29.82 in 10.0 mi NNW 26.5 mph 31.1 mph N/A   Partly Cloudy
3:35 PM 48.2 °F - 17.6 °F 30% 29.84 in 10.0 mi NW 21.9 mph 31.1 mph N/A   Partly Cloudy
3:55 PM 48.2 °F - 17.6 °F 30% 29.84 in 10.0 mi NW 20.7 mph 26.5 mph N/A   Scattered Clouds
4:15 PM 48.2 °F - 15.8 °F 27% 29.86 in 10.0 mi NW 23.0 mph 29.9 mph N/A   Partly Cloudy
4:35 PM 48.2 °F - 15.8 °F 27% 29.87 in 10.0 mi NNW 20.7 mph 24.2 mph N/A   Partly Cloudy
4:55 PM 46.4 °F 38.7 °F 15.8 °F 29% 29.88 in 10.0 mi NNW 20.7 mph 24.2 mph N/A   Partly Cloudy
5:15 PM 46.4 °F 38.7 °F 15.8 °F 29% 29.89 in 10.0 mi NNW 20.7 mph 24.2 mph N/A   Clear
5:35 PM 46.4 °F 39.5 °F 15.8 °F 29% 29.90 in 10.0 mi NNW 17.3 mph 21.9 mph N/A   Clear
5:55 PM 44.6 °F 39.2 °F 15.8 °F 31% 29.91 in 10.0 mi NNW 10.4 mph - N/A   Clear
6:15 PM 42.8 °F 38.0 °F 14.0 °F 31% 29.92 in 10.0 mi NNW 8.1 mph - N/A   Clear
6:35 PM 37.4 °F 31.4 °F 12.2 °F 36% 29.93 in 10.0 mi North 8.1 mph - N/A   Clear
6:55 PM 35.6 °F 31.7 °F 12.2 °F 38% 29.95 in 10.0 mi North 4.6 mph - N/A   Clear
7:15 PM 35.6 °F 31.7 °F 12.2 °F 38% 29.96 in 10.0 mi North 4.6 mph - N/A   Clear
7:35 PM 32.0 °F 24.8 °F 10.4 °F 41% 29.97 in 10.0 mi North 8.1 mph - N/A   Clear
7:55 PM 28.4 °F 21.2 °F 8.6 °F 43% 29.98 in 10.0 mi North 6.9 mph - N/A   Clear
8:15 PM 28.4 °F 19.1 °F 10.4 °F 47% 29.99 in 10.0 mi North 10.4 mph - N/A   Clear
8:35 PM 28.4 °F 20.4 °F 12.2 °F 51% 29.99 in 10.0 mi NNE 8.1 mph - N/A   Clear
8:55 PM 28.4 °F 22.2 °F 10.4 °F 47% 30.01 in 10.0 mi North 5.8 mph - N/A   Clear
9:15 PM 28.4 °F 24.6 °F 10.4 °F 47% 30.02 in 10.0 mi North 3.5 mph - N/A   Clear
9:35 PM 26.6 °F - 10.4 °F 51% 30.03 in 10.0 mi Calm Calm - N/A   Clear
9:55 PM 26.6 °F 22.6 °F 10.4 °F 51% 30.04 in 10.0 mi North 3.5 mph - N/A   Clear
10:15 PM 26.6 °F 20.0 °F 10.4 °F 51% 30.05 in 10.0 mi NNE 5.8 mph - N/A   Clear
10:35 PM 26.6 °F 21.2 °F 12.2 °F 55% 30.06 in 10.0 mi NNE 4.6 mph - N/A   Clear
10:55 PM 26.6 °F 20.0 °F 12.2 °F 55% 30.06 in 10.0 mi NNE 5.8 mph - N/A   Clear
11:15 PM 24.8 °F 17.9 °F 10.4 °F 54% 30.07 in 10.0 mi North 5.8 mph - N/A   Clear
11:35 PM 21.2 °F 11.7 °F 8.6 °F 58% 30.07 in 10.0 mi North 8.1 mph - N/A   Clear
11:55 PM 23.0 °F 14.7 °F 10.4 °F 59% 30.08 in 10.0 mi North 6.9 mph - N/A   Clear